Regional Weather Roundup
Issued by NWS

Home | Current Version | Previous Version | Graphics & Text | Print | Product List | Glossary On
Versions: 1 2 3 4 5 6 7 8 9 10 11 12 13 14 15 16 17 18 19 20 21 22 23 24 25 26 27 28 29 30 31 32 33 34 35 36 37 38 39 40 41 42 43 44 45 46 47 48 49 50
000
ASUS43 KLOT 191508
RWRIL

ILLINOIS REGIONAL WEATHER ROUNDUP
NATIONAL WEATHER SERVICE CHICAGO/ROMEOVILLE IL
1000 AM CDT TUE SEP 19 2017

NOTE: "FAIR" INDICATES FEW OR NO CLOUDS BELOW 12,000 FEET WITH NO
SIGNIFICANT WEATHER AND/OR OBSTRUCTIONS TO VISIBILITY.

* THESE STATIONS ARE NOT UNDER NWS QUALITY CONTROL. THEY ALSO MAY NOT
  REPORT WEATHER SUCH AS PRECIPITATION OR FOG.

ILZ001-002-007-009-015-016-024-191600-
NORTHWEST ILLINOIS

CITY           SKY/WX    TMP DP  RH WIND       PRES   REMARKS
MOLINE         PTSUNNY   67  62  84 E3        29.96S HAZE
STERLING*        N/A     65  64  97 E3        29.98R FOG
SAVANNA*       CLOUDY    67  61  81 NE3       29.98S
$$

ILZ003-004-008-010-011-017-018-191600-
NORTH CENTRAL ILLINOIS

CITY           SKY/WX    TMP DP  RH WIND       PRES   REMARKS
ROCKFORD       MOSUNNY   70  63  78 E5        29.99S
FREEPORT*      CLOUDY    64  63  96 E3        30.00R
ROCHELLE*      MOSUNNY   68  64  88 E3        29.99S
DE KALB*       CLOUDY    69  65  88 NE5       29.99S
PERU*          CLOUDY    65  62  89 E3        29.98S FOG
$$

ILZ005-006-012>014-019>023-191600-
NORTHEAST ILLINOIS

CITY           SKY/WX    TMP DP  RH WIND       PRES   REMARKS
CHICAGO-OHARE  CLOUDY    69  65  86 N5        29.97R FOG
CHICAGO-MIDWAY LGT RAIN  69  67  93 E3        29.97R FOG
AURORA         PTSUNNY   70  67  90 CALM      29.98R
LANSING*       PTSUNNY   72  69  90 N5        29.97R FOG
JOLIET*        SUNNY     73  67  83 NE3       29.96S
WAUKEGAN       CLOUDY    68  67  96 SE3       29.98R FOG
DUPAGE AIRPORT PTSUNNY   71  67  87 NE8       29.97R
KANKAKEE*      CLOUDY    68  68  98 NW6       29.97S
WHEELING       LGT RAIN  68  68 100 CALM      29.99R FOG
MORRIS*        PTSUNNY   70  65  83 CALM      29.96S
ROMEOVILLE*    MOSUNNY   71  67  85 E3        29.97S
NORTHERLY ISL    N/A     67  65  93 S3          N/A
$$

LMZ740>746-191600-
SOUTHERN LAKE MICHIGAN

STATION/POSITION SKY/WX   TEMP    WIND        PRES    VSBY  WAVE
                          AIR SEA DIR/SP/G                  HT/PER
                          (F)     (DEG/KT/KT) (MB)    (MI)  (FT/S)
SOUTHERN BUOY              67 68   70/  8/ 10 1014.7          2/ 4
WILMETTE HARBOR            68 69  180/  2/  2   N/A           2/ 4
HARRISON CRIB              68     190/  5/  5   N/A
CALUMET HARBOR             70      CALM  /  1 1014.2R
BURNS HARBOR               68     320/  2/  3 1014.9S
MICHIGAN CITY              69     340/  2/  3   N/A
MICHIGAN CITY 6N           69 69  360/  2/  6   N/A           1/ 4
ST. JOSEPH                 69 68  140/  6/ 10 1014.5          1
$$

ILZ025>027-034>036-040-047-049-050-058-095>099-191600-
WEST-CENTRAL ILLINOIS

CITY           SKY/WX    TMP DP  RH WIND       PRES   REMARKS
QUINCY         CLOUDY    66  66 100 SE3       29.97R FOG
GALESBURG*     CLOUDY    66  66 100 CALM      29.97S FOG
MACOMB*        CLOUDY    66  66 100 SE5       29.99R FOG
JACKSONVILLE*  CLOUDY    67  67  99 SE5       29.97S FOG
PITTSFIELD*    FOG       66  66 100 SE3       30.00R VSB<1/4
$$

ILZ028>032-037-038-041>044-048-051>054-059>061-191600-
CENTRAL ILLINOIS

CITY           SKY/WX    TMP DP  RH WIND       PRES   REMARKS
PONTIAC        CLOUDY    67  66  98 CALM      29.98S FOG
BLOOMINGTON    PTSUNNY   71  65  81 VRB5      29.99R
DECATUR        CLOUDY    70  69  97 CALM      29.98R
PEORIA         CLOUDY    71  68  90 CALM      29.97R
LACON*         CLOUDY    65  65 100 CALM      29.97R FOG
LINCOLN*       CLOUDY    68  68 100 CALM      29.98R FOG
SPRINGFIELD    CLOUDY    69  69 100 SW3       29.98R
TAYLORVILLE    PTSUNNY   69  69 100 W3        29.98S
$$

ILZ033-039-045-046-055>057-062-063-191600-
EAST-CENTRAL ILLINOIS

CITY           SKY/WX    TMP DP  RH WIND       PRES   REMARKS
CHAMPAIGN      CLOUDY    69  66  90 W5        29.98R
RANTOUL*       CLOUDY    72  69  92 CALM      29.97R
MATTOON        MOSUNNY   73  70  90 S5        29.97R
PARIS*         PTSUNNY   73  70  90 W3        29.99R
$$

ILZ079-100>102-191600-
SOUTHWEST ILLINOIS

CITY           SKY/WX    TMP DP  RH WIND       PRES   REMARKS
ALTON          SUNNY     70  70 100 CALM      29.98S
CAHOKIA*       SUNNY     77  69  76 CALM      29.97S
SPARTA*        CLOUDY    70  70  99 CALM      30.00R
$$

ILZ064>066-069>071-074>076-080>082-084>086-088>090-092>094-191600-
SOUTH-CENTRAL ILLINOIS

CITY           SKY/WX    TMP DP  RH WIND       PRES   REMARKS
CARBONDALE     MOSUNNY   75  71  87 CALM      29.99R
CAIRO*         SUNNY     75  72  88 CALM      29.98S
EFFINGHAM*     MOSUNNY   73  71  92 CALM      30.00R
MARION         MOSUNNY   75  75 100 N5        30.00R
MT. VERNON       N/A     73  71  93 SE3       29.99R
CENTRALIA*     PTSUNNY   78  70  78 CALM      29.98R
SALEM*         MOSUNNY   76  69  77 SE3       29.99R
METROPOLIS*    CLOUDY    74  71  88 CALM      29.99S
$$

ILZ067-068-072-073-078-083-087-091-191600-
SOUTHEAST ILLINOIS

CITY           SKY/WX    TMP DP  RH WIND       PRES   REMARKS
LAWRENCEVILLE  CLOUDY    69  69 100 S7        29.99R
FLORA*         CLOUDY    76  71  85 S6          N/A
FAIRFIELD*     CLOUDY    73  72  97 CALM      29.98R
HARRISBURG*    MOSUNNY   74  70  86 CALM      29.99S
ROBINSON*      CLOUDY    69  69  99 S6        30.00R
CARMI*         CLOUDY    71  71  99 CALM      29.98S FOG
$$

ABBREVIATIONS USED IN REMARKS
   TC - TEMPERATURE IN CELSIUS
  WCI - WIND CHILL INDEX
   HX - HEAT INDEX
  VSB - VISIBILITY
$$





USA.gov is the U.S. government's official web portal to all federal, state and local government web resources and services.